Wind_Speed
63 66 67 68 69 69 72 75 76 76 81 85 90 93 97 101 106 111 115 116 117 119 116 114 109 99 103 101 105 108 105 101 91 86 89 84 92 92 95 96 91 86 86
55 55 58 60 63 65 65 66 69 74 77 80 84 87 89 92 95 99 106 110 114 116 118 119 118 116 113 114 116 114 115 114 110 107 88 92 96 99 97 98 98 94 89
38 41 44 46 51 55 57 57 60 64 72 77 80 84 85 88 91 93 97 104 110 115 120 121 123 122 121 122 120 117 119 118 125 118 113 106 104 106 105 106 104 102 92
31 32 31 33 37 41 45 48 50 55 61 70 75 79 83 87 89 90 93 98 105 111 118 123 124 127 130 130 129 131 133 131 132 131 117 114 117 113 111 113 104 102 94
28 29 30 30 31 32 32 35 40 45 50 59 67 74 79 84 89 91 94 96 99 105 113 119 128 129 134 135 136 138 139 138 128 123 122 123 117 115 113 113 111 107 100
29 28 29 30 31 32 32 31 32 36 42 50 58 67 73 81 87 93 97 98 99 100 106 114 120 130 132 138 141 142 145 140 136 135 128 127 126 125 125 121 116 113 107
32 32 31 30 29 28 30 32 34 36 38 43 50 59 67 75 83 91 97 101 103 104 104 106 113 120 129 133 138 148 149 148 147 146 146 147 144 142 136 134 131 131 119
32 32 32 33 34 38 38 39 39 40 43 45 48 53 59 66 75 84 94 101 105 107 107 105 105 109 115 123 132 137 147 153 153 150 147 147 150 150 148 141 136 128 131
31 33 36 38 39 39 42 44 45 48 50 52 54 56 59 64 69 76 83 92 100 106 109 110 111 108 105 108 111 120 129 138 144 150 155 156 155 157 156 149 144 131 125
32 34 37 41 43 44 47 50 51 52 54 56 59 63 65 68 72 75 76 80 86 93 99 103 105 105 107 109 108 108 111 116 120 125 134 143 158 159 154 154 154 154 146
36 39 41 43 46 48 51 52 55 57 58 61 63 65 67 70 74 77 80 82 83 86 86 89 89 91 94 96 98 102 106 110 113 116 117 117 121 127 139 151 150 152 157
34 37 40 43 47 50 51 54 57 59 60 62 65 68 70 72 75 78 79 79 79 80 83 84 84 83 82 83 86 90 95 98 102 105 109 112 113 114 117 120 125 128 130
35 36 38 42 46 49 51 54 56 58 61 63 65 66 67 69 72 75 78 77 74 73 72 73 74 77 79 78 78 79 82 87 92 97 100 102 103 103 105 108 114 120 122
37 39 41 44 48 50 52 55 58 59 62 64 66 67 65 64 65 68 71 71 68 66 65 66 68 70 72 74 74 74 75 78 81 85 89 93 95 95 95 96 100 103 109
42 44 45 46 50 53 55 57 61 65 65 66 68 68 62 62 61 63 65 65 62 58 57 57 58 60 61 63 66 68 68 69 71 74 77 80 82 84 85 87 90 93 97
47 49 49 50 53 54 58 63 66 69 71 72 72 69 67 60 58 60 63 60 55 52 51 51 51 51 52 54 56 57 60 62 63 64 66 68 69 70 72 75 78 81 84
51 52 51 54 56 57 58 61 64 70 74 74 74 74 70 62 58 58 61 60 56 52 49 47 45 46 47 47 49 50 50 52 55 56 57 58 59 60 62 63 65 68 71
53 53 52 54 56 58 60 62 65 67 70 73 73 73 71 64 58 56 56 57 57 52 50 47 44 41 42 44 44 44 45 46 48 49 49 49 50 52 53 53 53 54 57
53 54 54 56 58 60 62 65 67 70 72 70 70 73 71 67 61 58 55 54 53 51 48 46 45 44 43 42 42 42 42 43 44 45 45 45 45 46 47 46 46 46 46
55 57 58 59 61 63 65 67 69 72 72 72 71 69 66 63 60 61 58 56 54 50 45 43 42 41 41 40 40 39 38 38 39 39 39 40 40 40 41 42 41 41 41
58 60 60 61 63 67 69 70 72 73 72 71 71 69 65 59 56 57 55 53 52 48 45 42 41 41 40 38 36 35 34 33 33 34 35 34 34 34 36 36 35 35 35
58 61 63 65 67 70 71 73 74 74 74 71 71 69 66 60 58 58 55 53 49 46 43 42 40 38 37 37 34 32 30 28 28 28 28 28 29 30 31 31 30 29 29
61 64 65 67 69 71 73 75 76 76 75 72 70 66 63 59 58 57 54 52 49 45 42 42 38 36 35 34 32 29 27 25 24 21 21 22 24 25 26 26 27 26 26
64 66 67 68 71 72 74 77 77 77 75 72 69 65 61 58 57 56 53 51 47 44 41 40 37 34 33 31 29 27 24 21 19 17 17 18 20 21 21 22 22 23 23
66 68 68 70 72 74 76 77 77 77 73 72 66 63 60 57 56 54 51 49 45 42 40 37 35 32 30 27 25 22 20 18 15 13 13 14 14 15 17 18 19 19 19
68 69 70 73 75 76 76 77 77 75 72 69 64 61 57 55 55 52 49 47 43 40 37 36 33 30 26 23 21 18 16 13 10 9 8 8 9 11 13 15 15 15 15
Wind_Direction
275 275 274 272 270 266 262 260 259 256 254 253 251 252 252 253 253 253 252 251 251 250 249 246 245 245 247 246 248 248 249 253 253 246 244 253 253 257 261 261 264 267 271
280 277 275 274 272 270 266 262 259 257 255 253 253 254 253 253 253 252 252 250 248 248 247 246 244 245 248 248 250 247 244 252 253 256 244 250 252 257 261 261 265 268 267
282 284 282 278 275 272 270 266 263 257 254 254 254 253 255 256 256 254 252 252 249 246 246 244 243 242 244 247 249 245 246 249 251 255 254 250 253 254 259 262 265 266 264
292 296 299 293 288 283 277 272 266 261 257 253 252 253 253 254 256 257 256 254 253 251 247 246 245 243 242 244 245 246 247 250 252 255 253 252 252 252 254 258 263 264 262
304 307 307 304 300 301 299 289 277 267 260 254 252 251 251 252 253 256 258 259 257 255 254 249 247 245 244 244 245 245 247 251 252 250 251 252 253 253 254 254 257 262 262
306 306 305 303 302 302 299 297 288 279 271 262 256 254 252 251 251 252 255 257 259 260 258 256 253 249 248 246 245 246 248 249 248 248 250 252 255 258 258 259 260 262 261
297 300 299 298 297 294 290 287 284 281 277 270 264 260 256 254 254 253 253 255 258 260 260 259 258 256 253 251 250 248 248 249 251 252 252 252 256 258 257 260 262 263 261
295 299 302 302 300 300 300 297 293 288 285 281 277 272 266 262 260 259 257 257 258 259 262 263 262 260 258 256 255 254 252 251 252 254 254 259 260 259 259 260 263 263 262
300 302 303 305 307 306 304 302 300 297 294 290 285 280 277 273 270 267 265 263 263 263 264 266 266 267 265 263 262 260 258 258 258 257 256 255 259 263 264 264 264 261 261
301 302 302 303 305 304 302 302 301 299 297 294 291 289 286 284 281 277 274 271 270 270 272 271 269 268 269 270 269 266 263 262 262 260 257 257 255 256 260 262 264 265 263
301 302 303 305 305 305 306 306 305 303 301 298 295 292 289 285 284 283 282 281 281 281 278 276 274 272 272 270 268 266 266 265 265 264 262 259 257 257 257 257 259 259 260
299 302 304 305 305 307 308 308 307 305 303 302 301 298 295 293 291 289 287 285 284 283 283 284 283 280 275 270 267 265 264 264 263 263 262 261 260 258 257 256 258 258 258
301 306 311 309 308 308 309 308 308 308 306 305 303 301 301 299 297 294 293 292 292 289 286 284 281 279 277 274 270 266 263 261 261 262 262 262 262 261 260 259 258 258 257
309 310 312 317 314 313 313 311 310 311 310 309 308 307 307 307 303 300 297 297 296 293 289 285 282 279 278 276 275 272 270 267 265 263 262 262 262 262 261 260 259 259 260
309 311 312 316 321 320 318 318 317 315 314 313 313 314 314 313 310 306 302 302 300 297 292 287 282 278 276 275 275 275 273 271 269 267 266 265 265 265 264 262 261 260 260
311 310 312 315 318 320 321 321 322 322 321 320 318 317 318 318 316 313 310 307 305 302 298 293 289 285 282 279 275 274 275 275 274 273 271 270 269 267 264 263 263 262 261
310 310 313 315 317 320 320 322 327 328 325 322 321 321 321 322 321 319 316 313 312 309 305 299 294 291 287 284 282 280 278 276 275 275 274 274 273 272 270 267 265 264 263
311 311 316 319 321 322 322 325 328 328 327 325 322 322 322 323 322 321 319 316 315 312 308 305 301 297 293 290 287 283 280 277 276 275 274 273 273 272 271 271 269 267 265
313 314 318 321 322 325 325 326 329 329 327 325 323 324 324 324 325 325 321 318 316 312 309 306 304 301 298 294 290 287 284 281 278 277 276 275 275 275 274 273 272 270 268
312 314 317 319 323 325 326 328 328 329 328 325 324 323 323 324 328 327 324 320 319 316 313 309 305 301 300 298 296 293 289 285 283 281 280 279 278 277 277 276 275 273 271
309 313 317 319 322 324 326 328 329 329 327 326 324 322 323 325 328 328 324 322 320 318 316 313 310 309 307 304 300 297 294 289 285 283 282 281 280 280 279 279 279 279 278
307 310 316 319 321 323 326 327 328 329 327 325 324 323 324 326 330 329 326 325 323 320 319 317 315 313 310 308 308 306 301 297 290 286 284 281 280 279 279 282 283 283 282
304 308 313 316 318 321 323 325 328 328 327 324 323 323 324 326 330 330 327 326 325 323 324 321 320 319 314 312 310 309 305 299 294 291 285 280 277 277 279 281 283 283 284
304 306 311 314 317 320 322 324 327 327 327 323 323 323 323 327 331 330 327 327 327 325 326 323 324 326 321 317 314 314 310 305 300 293 286 280 275 274 276 277 280 282 285
302 306 309 312 315 317 320 322 326 326 324 323 323 323 323 327 330 330 328 329 328 327 327 326 326 330 323 320 319 318 313 308 302 295 285 278 276 271 269 270 275 280 284
302 305 307 310 313 315 318 322 324 324 322 322 322 322 322 326 329 329 328 330 328 327 328 328 329 330 326 325 323 322 320 315 306 292 280 270 259 254 257 263 272 282 288
Height
10526 10520 10517 10516 10515 10515 10516 10516 10518 10522 10524 10527 10529 10530 10534 10538 10542 10546 10552 10560 10567 10572 10578 10585 10589 10592 10593 10593 10590 10590 10591 10590 10602 10608 10606 10609 10610 10612 10609 10612 10616 10623 10624
10508 10504 10501 10498 10495 10493 10494 10495 10497 10499 10501 10503 10505 10508 10510 10513 10516 10519 10520 10526 10532 10539 10544 10549 10553 10559 10563 10565 10563 10563 10563 10565 10569 10581 10594 10590 10591 10589 10591 10593 10598 10604 10604
10495 10491 10487 10483 10479 10476 10474 10475 10477 10478 10480 10481 10483 10486 10489 10491 10493 10494 10496 10496 10500 10506 10509 10513 10518 10525 10530 10531 10534 10534 10536 10540 10543 10553 10563 10568 10569 10570 10572 10572 10577 10581 10585
10484 10480 10474 10470 10467 10463 10460 10459 10459 10460 10462 10463 10464 10466 10468 10469 10470 10472 10473 10472 10472 10475 10478 10481 10485 10490 10495 10496 10501 10504 10506 10510 10516 10523 10530 10537 10539 10545 10550 10553 10556 10561 10564
10475 10471 10467 10463 10459 10455 10451 10448 10446 10444 10445 10445 10445 10446 10448 10449 10451 10451 10448 10448 10449 10448 10447 10450 10453 10457 10462 10466 10469 10470 10472 10478 10486 10494 10502 10508 10513 10518 10520 10525 10534 10538 10540
10467 10464 10461 10457 10452 10447 10444 10440 10436 10433 10431 10430 10429 10429 10429 10428 10428 10427 10424 10423 10421 10422 10421 10419 10422 10425 10430 10435 10438 10439 10439 10446 10453 10461 10470 10477 10482 10485 10491 10496 10503 10511 10519
10460 10457 10454 10451 10446 10440 10435 10430 10426 10422 10419 10416 10413 10412 10410 10409 10407 10404 10401 10397 10394 10392 10390 10390 10391 10394 10397 10403 10406 10409 10410 10416 10422 10428 10438 10442 10450 10451 10461 10468 10475 10484 10489
10454 10450 10445 10439 10433 10430 10425 10421 10417 10413 10408 10404 10400 10396 10393 10390 10387 10382 10378 10375 10371 10366 10363 10362 10364 10365 10368 10374 10377 10378 10380 10384 10388 10403 10409 10407 10411 10418 10424 10437 10442 10449 10459
10445 10441 10436 10431 10426 10421 10415 10410 10405 10399 10395 10389 10385 10381 10377 10372 10368 10363 10359 10353 10348 10343 10339 10337 10335 10337 10339 10345 10354 10352 10351 10350 10354 10367 10375 10381 10380 10379 10386 10396 10405 10418 10426
10437 10433 10428 10423 10417 10412 10406 10400 10394 10389 10383 10376 10369 10363 10358 10350 10346 10341 10337 10333 10327 10322 10317 10311 10309 10312 10310 10308 10313 10316 10317 10315 10317 10320 10332 10338 10346 10350 10350 10356 10361 10372 10384
10430 10425 10420 10414 10407 10401 10395 10389 10382 10375 10368 10360 10353 10346 10339 10332 10324 10318 10313 10307 10303 10293 10288 10282 10281 10280 10277 10276 10278 10278 10278 10278 10278 10281 10286 10295 10306 10310 10316 10320 10325 10329 10335
10423 10417 10411 10405 10398 10391 10384 10377 10370 10362 10353 10344 10334 10323 10314 10306 10298 10290 10284 10281 10278 10271 10260 10254 10248 10245 10245 10244 10243 10244 10244 10243 10242 10244 10247 10251 10259 10270 10276 10283 10284 10289 10295
10414 10408 10402 10396 10389 10382 10373 10365 10357 10348 10339 10330 10320 10309 10298 10287 10277 10266 10256 10252 10248 10243 10237 10228 10221 10215 10211 10210 10209 10210 10210 10211 10212 10212 10213 10216 10220 10229 10238 10244 10251 10251 10256
10404 10398 10392 10385 10377 10369 10361 10352 10343 10334 10324 10315 10304 10293 10282 10272 10260 10247 10236 10229 10223 10216 10210 10203 10196 10190 10186 10181 10179 10180 10180 10180 10182 10183 10184 10186 10189 10197 10203 10211 10214 10219 10219
10395 10388 10382 10375 10366 10356 10347 10338 10326 10315 10307 10298 10286 10275 10268 10255 10243 10230 10219 10210 10202 10194 10186 10178 10173 10168 10165 10161 10156 10154 10155 10155 10156 10157 10159 10160 10164 10170 10177 10181 10184 10189 10192
10385 10379 10371 10363 10356 10347 10336 10321 10308 10297 10286 10276 10265 10256 10245 10237 10226 10212 10199 10191 10184 10176 10167 10160 10153 10148 10144 10141 10138 10137 10135 10134 10134 10135 10136 10138 10141 10145 10149 10152 10155 10160 10164
10374 10368 10361 10353 10345 10336 10327 10317 10304 10285 10271 10261 10250 10237 10226 10219 10209 10197 10183 10171 10164 10157 10150 10143 10136 10130 10126 10123 10120 10119 10119 10117 10115 10115 10115 10117 10119 10121 10123 10127 10131 10135 10138
10363 10357 10350 10342 10334 10325 10315 10304 10293 10282 10269 10253 10238 10226 10212 10204 10196 10186 10173 10160 10149 10142 10135 10128 10122 10117 10111 10107 10104 10102 10101 10099 10097 10097 10097 10098 10100 10101 10102 10105 10109 10113 10115
10352 10345 10338 10331 10322 10313 10304 10292 10280 10268 10256 10243 10230 10214 10200 10187 10178 10170 10160 10150 10139 10129 10121 10115 10109 10102 10098 10093 10089 10087 10086 10084 10083 10082 10083 10083 10084 10084 10085 10087 10090 10092 10095
10340 10333 10326 10318 10309 10300 10291 10280 10268 10256 10242 10229 10216 10206 10194 10181 10168 10155 10146 10135 10126 10118 10111 10104 10097 10091 10086 10082 10078 10075 10074 10072 10070 10069 10070 10070 10071 10070 10071 10072 10074 10076 10079
10328 10321 10314 10306 10297 10288 10278 10267 10256 10244 10231 10216 10203 10191 10181 10172 10161 10150 10138 10127 10116 10107 10099 10092 10086 10080 10075 10071 10067 10065 10063 10061 10059 10058 10058 10059 10059 10060 10059 10060 10061 10063 10065
10315 10308 10301 10292 10283 10274 10264 10254 10244 10232 10219 10206 10193 10179 10168 10158 10149 10138 10127 10117 10107 10099 10091 10083 10077 10071 10065 10060 10058 10055 10053 10051 10049 10048 10048 10048 10048 10049 10049 10050 10051 10053 10054
10302 10294 10287 10280 10271 10262 10252 10243 10232 10219 10207 10194 10182 10171 10159 10149 10140 10129 10118 10108 10098 10090 10082 10075 10069 10063 10056 10052 10049 10046 10044 10042 10041 10040 10039 10039 10039 10040 10040 10042 10043 10044 10045
10288 10281 10275 10267 10258 10250 10240 10230 10219 10207 10196 10183 10172 10160 10150 10140 10132 10121 10110 10101 10092 10083 10076 10068 10062 10056 10050 10045 10042 10039 10036 10035 10033 10033 10032 10032 10032 10033 10035 10036 10036 10037 10038
10274 10268 10262 10254 10246 10238 10229 10219 10208 10197 10185 10172 10162 10151 10140 10132 10123 10114 10104 10094 10085 10076 10070 10062 10055 10051 10046 10041 10037 10034 10032 10030 10029 10028 10028 10028 10028 10029 10030 10030 10031 10033 10034
10261 10255 10249 10241 10233 10225 10217 10207 10197 10186 10174 10162 10151 10141 10132 10124 10116 10107 10098 10089 10080 10072 10065 10058 10051 10047 10043 10038 10035 10032 10029 10027 10025 10024 10024 10024 10025 10025 10026 10027 10028 10029 10030